This is the latest recevied weather packets stored in our database for station/object KO4WIL-13. If no packets are shown the sender has not sent any weather packets the latest 1 day(s).
| Time | Temp. | Humidity | Pressure | Rain* | Wind** | Luminosity | Snow |
|---|---|---|---|---|---|---|---|
| 1778024187 | 20.56° C | 63% | 962.9 hPa | 0 mm | 0 m/s | - | - |
| 1778023885 | 20.56° C | 64% | 963 hPa | 0 mm | 0 m/s | - | - |
| 1778023583 | 20.56° C | 64% | 963 hPa | 0 mm | 0 m/s | - | - |
| 1778023281 | 20.56° C | 68% | 962.9 hPa | 0 mm | 0 m/s | - | - |
| 1778022979 | 21.11° C | 64% | 963 hPa | 0 mm | 0 m/s | - | - |
| 1778022677 | 21.67° C | 58% | 963.1 hPa | 0 mm | 0 m/s | - | - |
| 1778022375 | 21.67° C | 54% | 963.2 hPa | 0 mm | 0 m/s | - | - |
| 1778022073 | 21.67° C | 58% | 963.2 hPa | 0 mm | 0 m/s | - | - |
| 1778021771 | 21.67° C | 54% | 963.3 hPa | 0 mm | 0 m/s | - | - |
| 1778021468 | 21.67° C | 51% | 963.2 hPa | 0 mm | 0 m/s | - | - |
| 1778021166 | 21.67° C | 52% | 963.2 hPa | 0 mm | 0 m/s | - | - |
| 1778020864 | 21.67° C | 54% | 963.3 hPa | 0 mm | 0 m/s | - | - |
| 1778020562 | 21.67° C | 54% | 963.3 hPa | 0 mm | 0 m/s | - | - |
| 1778020260 | 21.67° C | 50% | 963.2 hPa | 0 mm | 0 m/s | - | - |
| 1778019958 | 21.67° C | 52% | 963.3 hPa | 0 mm | 0 m/s | - | - |
| 1778019656 | 21.67° C | 49% | 963.4 hPa | 0 mm | 0 m/s | - | - |
| 1778019353 | 21.67° C | 50% | 963.3 hPa | 0 mm | 0.45 m/s, 250° | - | - |
| 1778019051 | 21.67° C | 51% | 963.4 hPa | 0 mm | 0 m/s | - | - |
| 1778018749 | 21.67° C | 50% | 963.5 hPa | 0 mm | 0.45 m/s, 246° | - | - |
| 1778018447 | 21.67° C | 50% | 963.6 hPa | 0 mm | 0 m/s | - | - |
| 1778018145 | 21.67° C | 49% | 963.6 hPa | 0 mm | 0.45 m/s, 256° | - | - |
| 1778017843 | 21.67° C | 51% | 963.6 hPa | 0 mm | 0 m/s | - | - |
| 1778017541 | 21.67° C | 49% | 963.6 hPa | 0 mm | 0.45 m/s, 258° | - | - |
| 1778017239 | 21.67° C | 51% | 963.6 hPa | 0 mm | 0.45 m/s, 236° | - | - |
| 1778016937 | 21.67° C | 51% | 963.6 hPa | 0 mm | 0.45 m/s, 239° | - | - |
* Rain latest hour (hover to see other rain measurements)
** Current wind speed in m/s (hover to see current wind gust speed)